User: anonymous   Login
Location: L�tisburg
(47.3947°N, 9.0820°E)
Time: 17:11:18
(UTC+00:00)
Language:

Cosmos 1707 Rocket - Orbit

View from above orbital plane
View from above orbital plane
View from above satellite
View from above satellite

Ground track
Ground track

The orbit data is extracted from the following two-line orbital elements,

1 16327U 85113B   21125.96052631  .00000060  00000-0  44315-5 0  9998
2 16327  82.5370 205.9212 0018742 354.0271 179.0684 14.83505332891064
Epoch (UTC): 05 May 2021 23:03:09
Eccentricity: 0.0018742
inclination: 82.5370°
perigee height: 605 km
apogee height: 631 km
right ascension of ascending node: 205.9212°
argument of perigee: 354.0271°
revolutions per day: 14.83505332
mean anomaly at epoch: 179.0684°
orbit number at epoch: 89106

The dashed part of the orbit path shows where the satellite is in the earth's shadow,  

DLR